Lumberton, NC

9:17 PM EST on February 20, 2017 (GMT -0500)
Lumberton Municipal

Weather History for KLBT - November, 2013

Change the Weather History Date:

Friday, November 15, 2013

  Actual Average Record
Temperature  
Mean Temperature 49 °F 54 °F  
Max Temperature 68 °F 68 °F 78 °F (2005)
Min Temperature 29 °F 41 °F 26 °F (2004)
Degree Days  
Heating Degree Days 16 11  
Month to date heating degree days 192 138  
Since 1 July heating degree days 296 270  
Cooling Degree Days 0 0  
Month to date cooling degree days 9 10  
Year to date cooling degree days 1856 1904  
Moisture  
Dew Point 42 °F    
Average Humidity 71    
Maximum Humidity 96    
Minimum Humidity 45    
Precipitation  
Precipitation 0.00 in 0.10 in 2.10 in (2008)
Month to date precipitation 0.60 1.35  
Year to date precipitation 38.33 39.11  
Sea Level Pressure  
Sea Level Pressure 30.28 in    
Wind  
Wind Speed 2 mph (ESE)    
Max Wind Speed 10 mph    
Max Gust Speed 14 mph    
Visibility 10 miles    
Events      
T = Trace of Precipitation, MM = Missing Value Source: NWS Daily Summary

Daily Weather History Graph

Daily Weather History Graph

Search for Another Location

Airport or City:

Trip Planner

Search our weather history database for the weather conditions in past years. The results will help you decide how hot, cold, wet, or windy it might be!

Date:

Astronomy

Nov. 15, 2013 Rise Set
Actual Time 6:50 AM EST 5:11 PM EST
Civil Twilight 6:23 AM EST 5:38 PM EST
Nautical Twilight 5:52 AM EST 6:08 PM EST
Astronomical Twilight 5:23 AM EST 6:38 PM EST
Moon 4:03 PM EST (11/15) 4:49 AM EST (11/15)
Length of Visible Light 11h 14m
Length of Day
10h 21m
Waxing Gibbous, 96% of the Moon is Illuminated
Nov 15
Waxing Gibbous
Nov 17
Full
Nov 25
Last Quarter
Dec 2
New
Dec 9
First Quarter

Hourly Weather History & Observations

Time (EST) Temp. Dew Point Humidity Pressure Visibility Wind Dir Wind Speed Gust Speed Precip Events Conditions
12:54 AM 30.0 °F 27.0 °F 88% 30.35 in 10.0 mi Calm Calm - N/A   Clear
1:54 AM 28.9 °F 26.1 °F 89% 30.35 in 10.0 mi Calm Calm - N/A   Clear
2:54 AM 30.0 °F 27.0 °F 88% 30.35 in 10.0 mi Calm Calm - N/A   Clear
3:54 AM 30.0 °F 27.0 °F 88% 30.34 in 10.0 mi Calm Calm - N/A   Clear
4:54 AM 30.9 °F 28.9 °F 92% 30.34 in 10.0 mi Calm Calm - N/A   Clear
5:54 AM 32.0 °F 30.0 °F 92% 30.34 in 10.0 mi Calm Calm - N/A   Clear
6:54 AM 34.0 °F 32.0 °F 92% 30.35 in 10.0 mi Calm Calm - N/A   Clear
7:54 AM 37.9 °F 34.0 °F 86% 30.36 in 10.0 mi Calm Calm - N/A   Clear
8:54 AM 46.0 °F 35.1 °F 66% 30.35 in 10.0 mi Calm Calm - N/A   Clear
9:54 AM 54.0 °F 37.0 °F 53% 30.35 in 10.0 mi ENE 3.5 mph - N/A   Scattered Clouds
11:54 AM 66.0 °F 44.1 °F 45% 30.30 in 10.0 mi SE 3.5 mph - N/A   Partly Cloudy
12:54 PM 66.0 °F 46.9 °F 50% 30.27 in 10.0 mi ESE 3.5 mph - N/A   Mostly Cloudy
1:54 PM 66.9 °F 48.0 °F 51% 30.25 in 10.0 mi Calm Calm - N/A   Mostly Cloudy
2:54 PM 68.0 °F 50.0 °F 52% 30.22 in 10.0 mi SSE 6.9 mph - N/A   Clear
3:54 PM 66.0 °F 51.1 °F 59% 30.22 in 10.0 mi ESE 6.9 mph - N/A   Partly Cloudy
4:54 PM 64.0 °F 53.1 °F 67% 30.22 in 10.0 mi SE 6.9 mph - N/A   Mostly Cloudy
5:54 PM 61.0 °F 53.1 °F 75% 30.20 in 10.0 mi ESE 3.5 mph - N/A   Partly Cloudy
6:54 PM 55.9 °F 53.1 °F 90% 30.22 in 10.0 mi ESE 3.5 mph - N/A   Partly Cloudy
7:54 PM 57.9 °F 53.1 °F 84% 30.21 in 10.0 mi ESE 3.5 mph - N/A   Clear
8:54 PM 59.0 °F 54.0 °F 83% 30.21 in 10.0 mi Calm Calm - N/A   Partly Cloudy
9:54 PM 57.9 °F 54.0 °F 87% 30.20 in 10.0 mi East 3.5 mph - N/A   Scattered Clouds
10:54 PM 57.0 °F 54.0 °F 89% 30.22 in 10.0 mi Calm Calm - N/A   Overcast
11:54 PM 57.0 °F 54.0 °F 89% 30.20 in 8.0 mi East 4.6 mph - N/A   Overcast